Torna al catalogo

CZ-6A DEB

AttivoPO
NORAD 54463·DEBRIS·🇨🇳 China

Lanciato Nov 11, 2022 da Taiyuan Satellite Launch Center

Loading…

Prossimi Passaggi (prossime 24 ore)

TLE

AggiornatoSource: Space-Track

Epoca: Sep 14, 2026, 12:43 UTC

1 54463U 22151GP  26257.53033171  .00002473  00000-0  37857-3 0  9997
2 54463  98.6570 354.5923 0121082 297.5538  61.3407 14.69941045204328

Traccia CZ-6A DEB in tempo reale con AllMySat

Download on the App Store